This is the latest recevied weather packets stored in our database for station/object VE9LJW. If no packets are shown the sender has not sent any weather packets the latest 10 day(s).
| Time | Temp. | Humidity | Pressure | Rain* | Wind** | Luminosity | Snow |
|---|---|---|---|---|---|---|---|
| 1778195713 | 17.78° C | 57% | 999.4 hPa | 0 mm | - | 2 W/m² | - |
| 1778195411 | 17.78° C | 56% | 999.4 hPa | 0 mm | - | 6 W/m² | - |
| 1778195107 | 17.78° C | 56% | 999.2 hPa | 0 mm | - | 10 W/m² | - |
| 1778194803 | 17.78° C | 55% | 999.4 hPa | 0 mm | - | 16 W/m² | - |
| 1778194498 | 17.78° C | 57% | 999.1 hPa | 0 mm | - | 15 W/m² | - |
| 1778194195 | 17.78° C | 58% | 999.4 hPa | 0 mm | - | 15 W/m² | - |
| 1778193891 | 17.78° C | 59% | 999.3 hPa | 0 mm | - | 16 W/m² | - |
| 1778193588 | 17.78° C | 61% | 999.3 hPa | 0 mm | - | 15 W/m² | - |
| 1778193284 | 17.78° C | 63% | 999.3 hPa | 0 mm | - | 13 W/m² | - |
| 1778192981 | 17.78° C | 56% | 999.4 hPa | 0 mm | - | 12 W/m² | - |
| 1778192678 | 17.78° C | 55% | 999.4 hPa | 0 mm | - | 15 W/m² | - |
| 1778192374 | 18.33° C | 56% | 999.3 hPa | 0 mm | - | 15 W/m² | - |
| 1778192071 | 18.33° C | 54% | 999.4 hPa | 0 mm | - | 21 W/m² | - |
| 1778191767 | 18.33° C | 54% | 999.2 hPa | 0 mm | - | 24 W/m² | - |
| 1778191465 | 18.33° C | 51% | 999.2 hPa | 0 mm | - | 26 W/m² | - |
| 1778191162 | 18.33° C | 54% | 999.1 hPa | 0 mm | - | 28 W/m² | - |
| 1778190858 | 18.33° C | 55% | 999.2 hPa | 0 mm | - | 35 W/m² | - |
| 1778190556 | 18.89° C | 51% | 999.2 hPa | 0 mm | - | 44 W/m² | - |
| 1778190253 | 18.89° C | 50% | 999 hPa | 0 mm | - | 70 W/m² | - |
| 1778189948 | 18.89° C | 51% | 999 hPa | 0 mm | - | 88 W/m² | - |
| 1778189645 | 18.33° C | 50% | 998.9 hPa | 0 mm | - | 89 W/m² | - |
| 1778189342 | 18.33° C | 48% | 998.8 hPa | 0 mm | - | 98 W/m² | - |
| 1778189038 | 18.33° C | 51% | 998.9 hPa | 0 mm | - | 95 W/m² | - |
| 1778188735 | 18.33° C | 55% | 999 hPa | 0 mm | - | 83 W/m² | - |
| 1778188431 | 18.33° C | 53% | 998.9 hPa | 0 mm | - | 75 W/m² | - |
* Rain latest hour (hover to see other rain measurements)
** Current wind speed in m/s (hover to see current wind gust speed)